Dauntless Aviation
Airports North America United States Colorado
98CO

NCMC HELIPORT

GREELEY, CO, USA

Airport Info
Suggest Updated Information for this Airport

Location

Latitude / Longitude: 40°24'53"N / 104°42'39"W
  40°24.8908'N / 104°42.6508'W
  40.4148 / -104.7108
Elevation: 4882.0 ft. (estimated)
Variation: 12E (1985)
From city: 00 miles N of GREELEY, CO

Operations

Facility use: Private
Sectional chart: DENVER
Control tower: no
Boundary ARTCC: DENVER
FSS: DENVER [1-800-WX-BRIEF]
Segmented circle: no

Communications

Nearby radio navigation aids

VOR radial/distance VOR name Freq Var
GLL 234oT/9.0 GILL VORTAC 114.20 13E
DVV 353oT/31.5 MILE HIGH VORTAC 114.70 11E
BJC 33oT/36.0 JEFFCO VOR/DME 115.40 11E
DEN 356oT/36.2 DENVER VOR/DME 117.90 11E
 
NDB name Hdg/Dist Freq Var ID

Services

Runway Information

Helipad H1

Dimensions: 40 x 40 ft.
Surface: PORTLAND CEMENT CONCRETE,NO SPECIAL SURFACE TREATMENT
Latitude: 40-24-53.4500N
Longitude: 104-42-39.0500W
Elevation: 4882.0 ft. ft.
 

Additional Remarks

Instrument Procedures

No published instrument procedures available
Topographic chart at:
Satellite photo at:
Airport distance calculator
From:
Weather Reports

METAR

KGXY
4.3nm NE
KGXY 230756Z AUTO 01004KT 9SM CLR 13/13 A3017 RMK AO2 SLP181 T01330128
KFNL
14.1nm W
KFNL 230756Z AUTO 02003KT 10SM CLR 16/14 A3018 RMK AO2 SLP163 T01610139 PNO $
KLMO
25.6nm SW
KLMO 230755Z AUTO 25003KT 7SM CLR 15/09 A3020 RMK AO2 T01500090
KEIK
28.5nm S
KEIK 230756Z AUTO 00000KT 10SM CLR 14/08 A3023 RMK AO2 T01420082
KBDU
33.1nm SW
KBDU 230756Z AUTO 00000KT 10SM CLR 18/08 A3018 RMK AO2
KDEN
34.0nm SE
KDEN 230753Z 18012KT 10SM FEW120 SCT220 18/08 A3019 RMK AO2 SLP142 T01780083

TAF

KDEN
34.0nm SE
KDEN 230529Z 2306/2412 20012KT P6SM FEW140 SCT220 FM231500 25006KT P6SM SCT220 FM231900 04008KT P6SM FEW090 SCT150 BKN200 FM232200 08011KT P6SM SCT090 BKN140 TEMPO 2322/2401 VRB20G30KT BKN090 FM240200 13008KT P6SM FEW090 SCT140 BKN200 FM240500 21010KT P6SM FEW140 SCT200
KBJC
35.7nm S
KBJC 230529Z 2306/2406 31007KT P6SM FEW140 SCT220 FM231800 03008KT P6SM FEW090 SCT150 BKN200 FM232100 30010KT P6SM SCT090 BKN140 TEMPO 2321/2324 VRB20G30KT BKN090 FM240200 29007KT P6SM FEW090 SCT140 BKN200 FM240500 25007KT P6SM FEW140 SCT200
Safelog

 

Dauntless Aviation

© 2007-2017 Dauntless Aviation, all rights reserved
Information provided via PilotNav comes from a variety of official and unofficial data sources. As errors are possible, do not use PilotNav for primary flight planning purposes. Verify any information that you receive via PilotNav with current and canonical charts and other official documents. The material in this database is subject to database copyrights held by Dauntless Aviation and may not be copied without the express permission of Dauntless Aviation - licenses for use of part of all of this data are available for purchase; enquire via the Dauntless Aviation helpdesk. A number of mechanisms and markers exist in the database to protect against and identify infringement / copyright. Automated queries against this website are stictly prohibited, and all activity is logged and analyzed.